Hourly Data Report for September 16, 2017

All times are specified in Local Standard Time (LST). Add 1 hour to adjust for Daylight Saving Time where and when it is observed.

POND INLET A
NUNAVUT

72°41'22.000" N
77°58'08.000" W
61.60 m
2403206
71095
YIO

Download Data

Hourly Data (September 2017)
Hourly Data Report for September 16, 2017
Temp Definition
°C
Dew Point Temp Definition
°C
Rel Hum Definition
%
Wind Dir Definition
10's deg

Wind Spd Definition
km/h
Visibility Definition
km
Stn Press Definition
kPa
Hmdx Definition


Wind Chill Definition


Weather Definition


TIME
00:00 Legend Double Dagger -0.2 -2.7 83 LegendMM LegendMM LegendMM 100.09     LegendNANA
01:00 Legend Double Dagger -0.5 -2.9 84 LegendMM LegendMM LegendMM 100.09     LegendNANA
02:00 Legend Double Dagger -2.0 -5.2 79 LegendMM LegendMM LegendMM 100.09     LegendNANA
03:00 Legend Double Dagger -3.3 -5.3 86 LegendMM LegendMM LegendMM 100.11     LegendNANA
04:00 Legend Double Dagger -2.6 -4.2 89 LegendMM LegendMM LegendMM 100.10     LegendNANA
05:00 Legend Double Dagger -2.7 -4.4 88 18 8 16.1 100.09   -6 LegendNANA
06:00 Legend Double Dagger -1.1 -2.7 89 20 8 16.1 100.09   -4 LegendNANA
07:00 Legend Double Dagger -0.2 -1.8 89 19 8 16.1 100.10   -3 LegendNANA
08:00 Legend Double Dagger 0.5 -1.3 88 21 5 16.1 100.09     LegendNANA
09:00 Legend Double Dagger 0.7 -1.5 85 21 5 16.1 100.08     LegendNANA
10:00 Legend Double Dagger 1.2 -1.2 84 21 5 16.1 100.05     LegendNANA
11:00 Legend Double Dagger 0.4 -1.2 89 23 11 3.6 100.05     Snow
12:00 Legend Double Dagger 0.5 -0.4 94 21 15 16.1 100.03     LegendNANA
13:00 Legend Double Dagger 1.0 -0.9 87 23 26 16.1 100.05     LegendNANA
14:00 Legend Double Dagger 1.3 -0.6 87 24 30 16.1 100.07     LegendNANA
15:00 Legend Double Dagger 1.2 -2.0 79 29 18 16.1 100.15     LegendNANA
16:00 Legend Double Dagger 0.9 -6.2 59 28 22 16.1 100.20     LegendNANA
17:00 Legend Double Dagger -0.4 -6.1 66 27 37 16.1 100.21   -8 LegendNANA
18:00 Legend Double Dagger -1.8 -6.7 69 29 52 16.1 100.17   -11 LegendNANA
19:00 Legend Double Dagger -2.6 -7.0 72 27 46 16.1 100.32   -11 LegendNANA
20:00 Legend Double Dagger -2.8 -6.5 76 24 43 16.1 100.40   -11 LegendNANA
21:00 Legend Double Dagger -2.8 -6.1 78 25 37 16.1 100.39   -11 LegendNANA
22:00 Legend Double Dagger -3.0 -7.1 73 25 39 16.1 100.47   -11 LegendNANA
23:00 Legend Double Dagger -3.3 -7.1 75 LegendMM LegendMM LegendMM 100.51     LegendNANA

Notes on Data Quality.

Legend

  • E = Estimated
  • M = Missing
  • NA = Not Available
  • ‡ = Partner data that is not subject to review by the National Climate Archives
Date modified: